Weather Roundup
Issued by NWS Springfield, MO

Home | Current Version | Previous Version | Text Only | Print | Product List | Glossary On
Versions: 1 2 3 4 5 6 7 8 9 10 11 12 13 14 15 16 17 18 19 20 21 22 23 24 25 26 27 28 29 30 31 32 33 34 35 36 37 38 39 40 41 42 43 44 45 46 47 48 49 50
000
NZUS99 KSGF 011759
HRRSGF

HOURLY WEATHER
NATIONAL WEATHER SERVICE SPRINGFIELD MO
100 PM CDT WED OCT 01 2014

......SGF CWA......

CITY           SKY/WX    TMP DP  RH WIND       PRES   REMARKS
SPRINGFIELD    FAIR      84  66  54 SW15      29.83F
6HR MIN TEMP:  64; 6HR MAX TEMP:  84;

JOPLIN         FAIR      86  68  54 S20       29.79F
6HR MIN TEMP:  70; 6HR MAX TEMP:  86;

WEST PLAINS    FAIR      82  64  54 S14G21    29.91F
6HR MIN TEMP:  56; 6HR MAX TEMP:  83;

ROLLA          FAIR      86  61  42 SW16G24   29.84F
6HR MIN TEMP:  62; 6HR MAX TEMP:  86; 6HR PCP: TRACE;

OSAGE BEACH    FAIR      88  64  45 SW13G22   29.82F
BRANSON        MOSUNNY   86  64  48 S9G20     29.87F

......SURROUNDING SGF CWA......

CITY           SKY/WX    TMP DP  RH WIND       PRES   REMARKS
CHANUTE        PTSUNNY   83  69  62 SW16G24   29.75F
PARSONS        LGT RAIN  85  69  58 S13       29.76F
COFFEYVILLE    FAIR      85  69  58 S16G24    29.74F
EMPORIA        FAIR      80  68  66 S9        29.74F
SILOAM SPRINGS PTSUNNY   81  66  61 S17G23    29.86S
HARRISON AR    FAIR      83  68  60 S8G20     29.88F
NEAR YELLVILLE PTSUNNY   84  64  51 S7        29.87F

......KANSAS AND MISSOURI......

CITY           SKY/WX    TMP DP  RH WIND       PRES   REMARKS
KANSAS CTY INT CLOUDY    71  68  90 E10       29.78F
DOWNTOWN KC    PTSUNNY   73  68  84 NE9       29.77F HAZE
COLUMBIA       PTSUNNY   75  62  64 NE8       29.84F
SEDALIA        CLOUDY    76  65  68 E9        29.82F
ST JOSEPH      CLOUDY    71  66  84 SE8       29.77F
ST LOUIS       PTSUNNY   83  61  47 S10       29.89F
SPIRIT OF STL  FAIR      83  61  47 VRB7      29.85F
KIRKSVILLE     CLOUDY    65  63  93 SE10      29.85F FOG
WICHITA        FAIR      85  64  49 S13       29.71F
TOPEKA         FAIR      83  66  56 W7        29.74F
OLATHE         CLOUDY    73  66  78 S5        29.77F

......TENNESSEE......

CITY           SKY/WX    TMP DP  RH WIND       PRES   REMARKS
MEMPHIS        FAIR      88  64  44 S12       29.93F
NASHVILLE      MOSUNNY   86  53  32 S6        29.98F

......ARKANSAS.......

CITY           SKY/WX    TMP DP  RH WIND       PRES   REMARKS
FAYETTEVILLE   FAIR      82  68  62 S18G25    29.86F
FT SMITH       FAIR      86  69  56 SE10      29.83F HX  90
LITTLE ROCK    PTSUNNY   84  69  60 SW8       29.89F

......OKLAHOMA.......

CITY           SKY/WX    TMP DP  RH WIND       PRES   REMARKS
TULSA          FAIR      89  68  49 S20G28    29.73F HX  93
PONCA CITY     FAIR      88  66  48 S10G21    29.71F HX  90
MCALESTER      FAIR      87  68  52 S14G22    29.81F HX  90
OKLAHOMA CITY  CLOUDY    87  65  47 S18G24    29.74F

......IOWA............

CITY           SKY/WX    TMP DP  RH WIND       PRES   REMARKS
DES MOINES     CLOUDY    69  63  81 S10       29.78F

......ILLINOIS........

CITY           SKY/WX    TMP DP  RH WIND       PRES   REMARKS
QUINCY         LGT RAIN  63  61  93 E9        29.86F FOG
CHICAGO        MOSUNNY   65  49  56 S8        29.98F




USA.gov is the U.S. government's official web portal to all federal, state and local government web resources and services.